Regional Weather Roundup
Issued by NWS Goodland, KS

Home | Current Version | Previous Version | Text Only | Print | Product List | Glossary Off
Versions: 1 2 3 4 5 6 7 8 9 10 11 12 13 14 15 16 17 18 19 20 21 22 23 24 25 26 27 28 29 30 31 32 33 34 35 36 37 38 39 40 41 42 43 44 45 46 47 48 49 50

000
ASUS43 KGLD 220708
RWRGLD

GOODLAND FORECAST AREA HOURLY WEATHER ROUNDUP
NATIONAL WEATHER SERVICE GOODLAND KS
100 AM MDT TUE MAY 22 2018

...OFFICIAL OBSERVATIONS...

CITY           SKY/WX    TMP DP  RH WIND       PRES   REMARKS
GOODLAND KS    PTCLDY    60  46  59 S10       29.94R
HILL CITY KS   CLEAR     66  59  78 S7        29.93S
IMPERIAL NEB   MOCLDY    58  56  93 SE6       29.88F
MCCOOK NEB     PTCLDY    66  59  78 S6        29.88F
AKRON CO       MOCLDY    57  45  64 S12       29.94S
BURLINGTON CO  PTCLDY    53  43  68 SE9       29.96S
LIMON CO       PTCLDY    55  40  56 SW8       29.98F
$$

...UNOFFICIAL OBSERVATIONS...

CITY           SKY/WX    TMP DP  RH WIND       PRES   REMARKS
COLBY KS       CLEAR     63  57  82 S9        29.95R
NORTON KS      CLEAR     66  59  77 SE9       29.91
SHARON SPRINGS   N/A     60  55  83 MISG        N/A
KIT CARSON CO    N/A     55  44  66 CALM        N/A
YUMA CO        FAIR      52  45  76 SW8       29.93R
$$




USA.gov is the U.S. government's official web portal to all federal, state and local government web resources and services.